Date String (YYYY-MM-DD hh:mm:ss) UTC,Instrument flags,Ambient pressure (hPa),Sample flow (lpm),Bypass flow (lpm),Sample temperature (°C),Ambient temperature (°C),ASC tube jacket temperature (°C),LED temperature (°C),Box temperature (°C),Sample RH (%),Span deviation,Mass concentration (μg/m³),Mass concentration (μg/m³),Mass concentration (μg/m³)
DateTimeUTC,F1_M11,P_M11,Q1_M11,Q2_M11,T1_M11,T2_M11,T3_M11,T4_M11,T5_M11,U1_M11,ZSPAN_M11,X2_M11,X0_M11,X1_M11
2023-02-09 21:00:00,,0832.9,5.01,0.00,23.9,23.0,00.0,32.8,25.6,06.2,0000.0,0001.17,0001.86,0000.92
2023-02-09 21:01:00,,0833.0,5.00,0.00,24.0,24.0,00.0,32.8,25.9,06.3,0000.0,0001.15,0001.66,0000.93
2023-02-09 21:02:00,,0833.0,5.01,0.00,24.1,23.7,00.0,32.8,25.9,06.4,0000.0,0001.14,0004.50,0000.95
2023-02-09 21:03:00,,0833.0,5.00,0.00,24.1,23.2,00.0,32.8,25.7,06.3,0000.0,0001.12,0004.90,0000.95
2023-02-09 21:04:00,,0833.0,5.01,0.00,24.0,22.8,00.0,32.9,25.6,06.2,0000.0,0001.10,0004.87,0000.95
2023-02-09 21:05:00,,0833.1,5.00,0.00,24.0,22.5,00.0,32.9,25.5,06.2,0000.0,0001.10,0004.93,0000.95
2023-02-09 21:06:00,,0833.0,4.98,0.00,23.9,22.2,00.0,32.8,25.4,06.1,0000.0,0001.11,0004.94,0000.95
2023-02-09 21:07:00,,0833.0,5.01,0.00,23.9,22.2,00.0,32.8,25.4,06.3,0000.0,0001.09,0004.90,0000.96
2023-02-09 21:08:00,,0833.0,4.98,0.00,23.9,23.1,00.0,32.8,25.6,06.3,0000.0,0001.07,0004.85,0000.96
2023-02-09 21:09:00,,0833.0,5.02,0.00,24.0,23.5,00.0,32.8,25.8,06.4,0000.0,0001.06,0004.85,0000.95
2023-02-09 21:10:00,,0833.0,4.93,0.00,24.0,23.1,00.0,32.8,25.6,06.3,0000.0,0001.06,0004.90,0000.96
2023-02-09 21:11:00,,0833.0,5.03,0.00,24.0,22.8,00.0,32.8,25.5,06.2,0000.0,0001.07,0004.94,0000.95
2023-02-09 21:12:00,,0833.0,5.03,0.00,23.9,22.4,00.0,32.8,25.5,06.2,0000.0,0001.09,0004.99,0000.96
2023-02-09 21:13:00,,0833.0,5.02,0.00,23.9,22.1,00.0,32.8,25.4,06.3,0000.0,0001.11,0002.62,0000.95
2023-02-09 21:14:00,,0833.0,5.01,0.00,23.8,21.9,00.0,32.8,25.3,06.3,0000.0,0001.12,0001.74,0000.94
2023-02-09 21:15:00,,0833.1,5.02,0.00,23.8,21.9,00.0,32.8,25.3,06.3,0000.0,0001.11,0001.69,0000.94
2023-02-09 21:16:00,,0833.1,5.04,0.00,23.8,22.9,00.0,32.7,25.5,06.4,0000.0,0001.11,0001.61,0000.95
2023-02-09 21:17:00,,0833.1,5.01,0.00,23.9,23.3,00.0,32.7,25.6,06.6,0000.0,0001.10,0001.60,0000.95
2023-02-09 21:18:00,,0833.1,4.93,0.00,23.9,23.0,00.0,32.7,25.5,06.5,0000.0,0001.09,0001.58,0000.95
2023-02-09 21:19:00,,0833.1,5.06,0.00,23.9,22.7,00.0,32.8,25.5,06.4,0000.0,0001.07,0001.52,0000.94
2023-02-09 21:20:00,,0833.1,5.07,0.00,23.8,22.4,00.0,32.8,25.3,06.3,0000.0,0001.09,0001.59,0000.94
2023-02-09 21:21:00,,0833.0,5.06,0.00,23.8,22.1,00.0,32.7,25.3,06.3,0000.0,0001.11,0001.68,0000.93
2023-02-09 21:22:00,,0833.1,4.99,0.00,23.8,22.0,00.0,32.7,25.2,06.5,0000.0,0001.14,0001.73,0000.94
2023-02-09 21:23:00,,0833.1,5.01,0.00,23.7,21.8,00.0,32.7,25.1,06.5,0000.0,0001.13,0001.70,0000.94
2023-02-09 21:24:00,,0833.0,5.01,0.00,23.7,21.7,00.0,32.7,25.1,06.5,0000.0,0001.09,0001.61,0000.94
2023-02-09 21:25:00,,0833.1,5.00,0.00,23.6,21.7,00.0,32.7,25.1,06.5,0000.0,0001.08,0001.59,0000.94
2023-02-09 21:26:00,,0833.1,5.04,0.00,23.7,22.7,00.0,32.6,25.4,06.6,0000.0,0001.09,0001.88,0000.94
2023-02-09 21:27:00,,0833.1,4.99,0.00,23.8,23.7,00.0,32.6,25.6,06.6,0000.0,0001.09,0001.89,0000.94
2023-02-09 21:28:00,,0833.1,5.01,0.00,23.9,23.5,00.0,32.6,25.6,06.6,0000.0,0001.13,0002.00,0000.95
2023-02-09 21:29:00,,0833.1,5.00,0.00,23.8,23.1,00.0,32.6,25.5,06.7,0000.0,0001.13,0001.99,0000.95
2023-02-09 21:30:00,,0833.1,4.99,0.00,23.8,22.7,00.0,32.7,25.4,06.6,0000.0,0001.14,0002.01,0000.97
2023-02-09 21:31:00,,0833.1,4.93,0.00,23.8,22.4,00.0,32.7,25.3,06.7,0000.0,0001.12,0001.95,0000.97
2023-02-09 21:32:00,,0833.1,4.94,0.00,23.7,22.1,00.0,32.6,25.2,06.7,0000.0,0001.13,0001.91,0000.98
2023-02-09 21:33:00,,0833.1,5.00,0.00,23.7,22.0,00.0,32.6,25.2,06.7,0000.0,0001.11,0001.92,0000.98
2023-02-09 21:34:00,,0833.1,4.99,0.00,23.7,21.9,00.0,32.6,25.2,06.4,0000.0,0001.13,0002.14,0000.97
2023-02-09 21:35:00,,0833.2,5.00,0.00,23.7,22.7,00.0,32.6,25.4,06.2,0000.0,0001.15,0002.37,0000.96
2023-02-09 21:36:00,,0833.2,5.02,0.00,23.8,23.7,00.0,32.6,25.6,06.2,0000.0,0001.16,0002.94,0000.96
2023-02-09 21:37:00,,0833.2,5.00,0.00,23.9,23.6,00.0,32.6,25.7,06.2,0000.0,0001.17,0002.67,0000.96
2023-02-09 21:38:00,,0833.1,5.03,0.00,23.9,23.2,00.0,32.6,25.6,06.3,0000.0,0001.18,0002.69,0000.96
2023-02-09 21:39:00,,0833.2,5.01,0.00,23.8,22.7,00.0,32.6,25.4,06.2,0000.0,0001.14,0002.58,0000.95
2023-02-09 21:40:00,,0833.2,4.93,0.00,23.8,22.4,00.0,32.7,25.3,06.4,0000.0,0001.11,0002.55,0000.93
2023-02-09 21:41:00,,0833.3,5.04,0.00,23.8,22.2,00.0,32.6,25.3,06.4,0000.0,0001.10,0002.53,0000.92
2023-02-09 21:42:00,,0833.2,4.99,0.00,23.7,22.0,00.0,32.6,25.2,06.5,0000.0,0001.12,0002.59,0000.92
2023-02-09 21:43:00,,0833.3,5.01,0.00,23.7,21.9,00.0,32.6,25.2,06.2,0000.0,0001.12,0002.57,0000.91
2023-02-09 21:44:00,,0833.3,5.02,0.00,23.6,21.8,00.0,32.6,25.1,06.4,0000.0,0001.11,0002.51,0000.91
2023-02-09 21:45:00,,0833.2,4.99,0.00,23.6,21.7,00.0,32.6,25.1,06.5,0000.0,0001.07,0002.27,0000.90
2023-02-09 21:46:00,,0833.2,5.00,0.00,23.6,21.6,00.0,32.6,25.0,06.3,0000.0,0001.06,0002.19,0000.90
2023-02-09 21:47:00,,0833.3,4.99,0.00,23.6,22.2,00.0,32.5,25.2,06.3,0000.0,0001.07,0001.65,0000.89
2023-02-09 21:48:00,,0833.3,4.99,0.00,23.7,23.3,00.0,32.5,25.5,06.3,0000.0,0001.09,0001.64,0000.89
2023-02-09 21:49:00,,0833.3,5.02,0.00,23.8,23.6,00.0,32.5,25.6,06.3,0000.0,0001.07,0001.63,0000.87
2023-02-09 21:50:00,,0833.3,4.94,0.00,23.8,23.1,00.0,32.6,25.4,06.2,0000.0,0001.08,0001.67,0000.86
2023-02-09 21:51:00,,0833.3,4.98,0.00,23.7,22.7,00.0,32.6,25.3,06.1,0000.0,0001.08,0001.67,0000.86
2023-02-09 21:52:00,,0833.3,5.02,0.00,23.7,22.3,00.0,32.6,25.2,06.2,0000.0,0001.10,0001.71,0000.87
2023-02-09 21:53:00,,0833.3,5.03,0.00,23.7,22.1,00.0,32.6,25.2,06.1,0000.0,0001.09,0001.68,0000.85
2023-02-09 21:54:00,,0833.3,5.01,0.00,23.6,21.9,00.0,32.5,25.1,06.1,0000.0,0001.06,0001.65,0000.84
2023-02-09 21:55:00,,0833.3,5.02,0.00,23.6,21.7,00.0,32.5,25.0,06.1,0000.0,0001.05,0001.59,0000.84
2023-02-09 21:56:00,,0833.3,4.97,0.00,23.5,21.8,00.0,32.5,25.1,06.2,0000.0,0001.06,0001.60,0000.85
2023-02-09 21:57:00,,0833.4,4.99,0.00,23.6,22.6,00.0,32.5,25.3,06.4,0000.0,0001.05,0001.59,0000.85
2023-02-09 21:58:00,,0833.4,5.02,0.00,23.7,23.6,00.0,32.5,25.6,06.2,0000.0,0001.06,0001.54,0000.86
2023-02-09 21:59:00,,0833.4,4.96,0.00,23.8,23.4,00.0,32.5,25.6,06.2,0000.0,0001.04,0001.54,0000.86
